Regional Weather Roundup
Issued by NWS Mobile, AL

Home | Current Version | Previous Version | Text Only | Print | Product List | Glossary On
Versions: 1 2 3 4 5 6 7 8 9 10 11 12 13 14 15 16 17 18 19 20 21 22 23 24 25 26 27
000
ASUS44 KMOB 191412
RWRMOB
REGIONAL WEATHER ROUNDUP
NATIONAL WEATHER SERVICE MOBILE AL
800 AM CST THU JAN 19 2017

NOTE: "FAIR" INDICATES FEW OR NO CLOUDS BELOW 12,000 FEET WITH NO
      SIGNIFICANT WEATHER AND/OR OBSTRUCTIONS TO VISIBILITY.

  * THESE STATIONS ARE PART OF THE UNIVERSITY OF SOUTH ALABAMA
    MESONET AND ARE NOT UNDER NWS OR FAA QUALITY CONTROL.

ALZ061>064-191500-
COASTAL ALABAMA

CITY           SKY/WX    TMP DP  RH WIND       PRES   REMARKS
MOBILE REG APT CLOUDY    70  68  93 S10       29.99R FOG
BROOKLEY FIELD FOG       68  68 100 S7        30.00R VSB 3/4
USA CAMPUS*      N/A     70  68  94 CALM      29.99R
DOG RIVER*       N/A     66  66 100 S6        30.74R


CITY           SKY/WX    TMP DP  RH WIND       PRES   REMARKS
GULF SHORES    CLOUDY    68  68 100 S7        30.00R

$$

ALZ051>060-191500-
INTERIOR SOUTHWEST AND SOUTH CENTRAL ALABAMA

CITY           SKY/WX    TMP DP  RH WIND       PRES   REMARKS
GREENVILLE     FOG       63  61  93 S5        30.00S VSB 1/4
EVERGREEN      FOG       64  64 100 CALM      30.01R VSB 1/4
ATMORE*          N/A    N/A N/A N/A S7        30.02R
ANDALUSIA/OPP  FOG       64  61  90 SE3       30.01S VSB 1/4
ANDALUSIA*     NOT AVBL
FLORALA APT    FOG       62  61  96 CALM      30.03S VSB 1/4
FLORALA*         N/A     63  63 100 CALM      30.73F

$$

FLZ001>006-191500-
WESTERN FLORIDA PANHANDLE

CITY           SKY/WX    TMP DP  RH WIND       PRES   REMARKS
PENSACOLA      CLOUDY    68  66  93 SE7       30.00R FOG
NAS PENSACOLA  CLOUDY    69  68  96 S6        30.00R FOG
MILTON         FOG       64  64 100 SE6       30.00S VSB 1/4
WHTNG S FIELD  FOG       67  65  93 SE6       30.00S VSB 1/8


CITY           SKY/WX    TMP DP  RH WIND       PRES   REMARKS
JAY*             N/A     66  64  94 S8        30.01R
DUKE FIELD     FOG       64  64 100 SE5       30.00S VSB 3/4
CRESTVIEW      FOG       62  61  96 CALM      30.02S VSB 1/4
VALPARAISO     FOG       64  63  94 E7        30.01S VSB 1/4
DESTIN         FOG       68  67  96 SE8       30.01F VSB 1/4

$$

MSZ076-079-191500-
INTERIOR SOUTHEAST MISSISSIPPI

CITY           SKY/WX    TMP DP  RH WIND       PRES   REMARKS
LEAKESVILLE*   NOT AVBL
AGRICOLA*      NOT AVBL

$$

MARINE OBSERVATIONS

STATION/POSITION TIME  TEMP    WIND        PRES    WAVE
                       AIR SEA DIR/SP/G            HT/PER
                 (UTC) (F)     (DEG/KT/KT) (MB)    (FT/S)
PASCAGOULA       1348   67     150/  9/ 11 1015.0R
PETIT BOIS ISLND 1348   66     150/  9/ 10 1015.8R
GRAND BAY        1245   67     160/ 12     1016.0S
KATRINA CUT      1330          160/ 14     1014.9R
CEDAR POINT      1330   68     170/ 14     1015.2R
E DAUPHIN ISLAND 1300   67     150/ 12/ 13 1014.8F
MIDDLE BAY LIGHT 1330   67     130/ 10     1015.2S
USCG MOBILE BAY  1348   67 62  180/  5/  9 1016.1R
STATE DOCKS      1336   68 60              1015.3R
MEAHER PARK      1330   70     140/  8     1014.9S
WEEKS BAY        1230   69                   N/A
FORT MORGAN      1348   68     170/ 14/ 15   N/A
12 S ORANGE BCH  1250   68 65  160/  8/  8 1015.3F   2/ 7
PENSACOLA BAY    1336   68 66  140/  2/  4 1015.8R
67 S FORT MORGAN 1330   72                 1015.9

$$

SELECTED LOCATIONS ACROSS THE REGION

CITY           SKY/WX    TMP DP  RH WIND       PRES   REMARKS
NEW ORLEANS    CLOUDY    70  69  97 S8        29.95R
GULFPORT       FOG       68  68 100 S9        29.97R VSB 1/4
PASCAGOULA AP  CLOUDY    70  68  93 S9        29.98R
PASCAGOULA*    NOT AVBL
HATTIESBURG    LGT RAIN  69  68  96 S7        29.96R
LAUREL         CLOUDY    68  64  88 SE10      29.96S
MERIDIAN       LGT RAIN  67  67 100 S6        29.95R
JACKSON        TSTM      67  65  93 S8        29.91S FOG
MONTGOMERY     FOG       64  61  90 S3        30.01S VSB 1/4
TROY           FOG       58  58 100 CALM      30.03S VSB 1/4
ASHFORD*       NOT AVBL
DOTHAN         FOG       61  61 100 S3        30.06S VSB 1/4
PANAMA CITY    FOG       63  62  97 CALM      30.02F VSB<1/4

$$





USA.gov is the U.S. government's official web portal to all federal, state and local government web resources and services.